Time,TemperatureF,DewpointF,PressureIn,WindDirection,WindDirectionDegrees,WindSpeedMPH,WindSpeedGustMPH,Humidity,HourlyPrecipIn,Conditions,Clouds,dailyrainin,SolarRadiationWatts/m^2,SoftwareType,DateUTC
2013-01-30 00:00:00,33.9,33.9,30.08,SSE,161,0.0,0.0,100,-99.99,,,-99.99,1.0,HOBO +U30 +Weather +,2013-01-30 05:00:00,
2013-01-30 00:10:00,34.7,34.7,30.08,SSE,161,0.0,0.0,100,-99.99,,,-99.99,1.0,HOBO +U30 +Weather +,2013-01-30 05:10:00,
2013-01-30 00:20:00,34.6,34.6,30.08,SSE,161,0.0,0.0,100,-99.99,,,-99.99,1.0,HOBO +U30 +Weather +,2013-01-30 05:20:00,
2013-01-30 00:30:00,33.9,33.9,30.07,SSE,161,0.0,0.0,100,-99.99,,,-99.99,1.0,HOBO +U30 +Weather +,2013-01-30 05:30:00,
2013-01-30 00:40:00,34.3,34.3,30.07,SSE,161,0.0,0.0,100,-99.99,,,-99.99,1.0,HOBO +U30 +Weather +,2013-01-30 05:40:00,
2013-01-30 00:50:00,34.3,34.3,30.07,SSE,161,0.0,0.0,100,-99.99,,,-99.99,1.0,HOBO +U30 +Weather +,2013-01-30 05:50:00,
2013-01-30 01:00:00,34.1,34.1,30.07,SSE,161,0.0,0.0,100,-99.99,,,-99.99,1.0,HOBO +U30 +Weather +,2013-01-30 06:00:00,
2013-01-30 01:10:00,34.3,34.3,30.06,SSE,161,0.0,0.0,100,-99.99,,,-99.99,1.0,HOBO +U30 +Weather +,2013-01-30 06:10:00,
2013-01-30 01:20:00,34.4,34.4,30.05,SSE,161,0.0,0.0,100,-99.99,,,-99.99,1.0,HOBO +U30 +Weather +,2013-01-30 06:20:00,
2013-01-30 01:30:00,35.1,35.1,30.05,SSE,161,0.0,0.0,100,-99.99,,,-99.99,1.0,HOBO +U30 +Weather +,2013-01-30 06:30:00,
2013-01-30 01:40:00,35.5,35.5,30.05,SSE,160,0.0,1.1,100,-99.99,,,-99.99,1.0,HOBO +U30 +Weather +,2013-01-30 06:40:00,
2013-01-30 01:50:00,35.8,35.8,30.04,SSE,147,0.0,1.8,100,-99.99,,,-99.99,1.0,HOBO +U30 +Weather +,2013-01-30 06:50:00,
2013-01-30 02:00:00,35.9,35.9,30.04,SSE,147,0.0,1.1,100,-99.99,,,-99.99,1.0,HOBO +U30 +Weather +,2013-01-30 07:00:00,
2013-01-30 02:10:00,36.1,36.1,30.03,SSE,147,0.0,0.0,100,-99.99,,,-99.99,1.0,HOBO +U30 +Weather +,2013-01-30 07:10:00,
2013-01-30 02:20:00,36.2,36.2,30.02,SSE,147,0.0,0.0,100,-99.99,,,-99.99,1.0,HOBO +U30 +Weather +,2013-01-30 07:20:00,
2013-01-30 02:30:00,36.9,36.9,30.01,SE,145,0.0,2.9,100,-99.99,,,-99.99,1.0,HOBO +U30 +Weather +,2013-01-30 07:30:00,
2013-01-30 02:40:00,36.5,36.5,30.01,SE,128,0.0,2.2,100,-99.99,,,-99.99,1.0,HOBO +U30 +Weather +,2013-01-30 07:40:00,
2013-01-30 02:50:00,36.1,36.1,30.00,ESE,122,0.0,0.0,100,-99.99,,,-99.99,1.0,HOBO +U30 +Weather +,2013-01-30 07:50:00,
2013-01-30 03:00:00,36.8,36.8,30.00,ESE,122,0.0,0.0,100,-99.99,,,-99.99,1.0,HOBO +U30 +Weather +,2013-01-30 08:00:00,
2013-01-30 03:10:00,37.8,37.8,29.99,SE,140,0.0,2.9,100,-99.99,,,-99.99,1.0,HOBO +U30 +Weather +,2013-01-30 08:10:00,
2013-01-30 03:20:00,38.6,38.6,29.99,SSE,153,1.1,5.1,100,-99.99,,,-99.99,1.0,HOBO +U30 +Weather +,2013-01-30 08:20:00,
2013-01-30 03:30:00,39.4,39.4,29.98,SSE,154,2.2,7.4,100,-99.99,,,-99.99,1.0,HOBO +U30 +Weather +,2013-01-30 08:30:00,
2013-01-30 03:40:00,39.5,39.5,29.98,SSE,156,2.9,6.7,100,-99.99,,,-99.99,1.0,HOBO +U30 +Weather +,2013-01-30 08:40:00,
2013-01-30 03:50:00,39.7,39.7,29.98,SSE,166,2.9,6.3,100,-99.99,,,-99.99,1.0,HOBO +U30 +Weather +,2013-01-30 08:50:00,
2013-01-30 04:00:00,39.9,39.9,29.97,SSE,163,2.9,7.4,100,-99.99,,,-99.99,1.0,HOBO +U30 +Weather +,2013-01-30 09:00:00,
2013-01-30 04:10:00,40.1,40.1,29.96,South,170,4.0,8.9,100,-99.99,,,-99.99,1.0,HOBO +U30 +Weather +,2013-01-30 09:10:00,
2013-01-30 04:20:00,40.1,40.1,29.96,South,171,4.0,8.5,100,-99.99,,,-99.99,1.0,HOBO +U30 +Weather +,2013-01-30 09:20:00,
2013-01-30 04:30:00,40.5,40.5,29.96,South,171,5.6,10.1,100,-99.99,,,-99.99,1.0,HOBO +U30 +Weather +,2013-01-30 09:30:00,
2013-01-30 04:40:00,40.4,40.4,29.95,SSE,168,4.5,8.9,100,-99.99,,,-99.99,1.0,HOBO +U30 +Weather +,2013-01-30 09:40:00,
2013-01-30 04:50:00,40.5,40.5,29.95,South,170,3.4,7.4,100,-99.99,,,-99.99,1.0,HOBO +U30 +Weather +,2013-01-30 09:50:00,
2013-01-30 05:00:00,40.7,40.7,29.94,South,170,2.9,7.8,100,-99.99,,,-99.99,1.0,HOBO +U30 +Weather +,2013-01-30 10:00:00,
2013-01-30 05:10:00,40.9,40.9,29.94,South,173,2.2,6.3,100,-99.99,,,-99.99,1.0,HOBO +U30 +Weather +,2013-01-30 10:10:00,
2013-01-30 05:20:00,40.9,40.9,29.94,SSE,164,0.7,3.4,100,-99.99,,,-99.99,1.0,HOBO +U30 +Weather +,2013-01-30 10:20:00,
2013-01-30 05:30:00,41.1,41.1,29.93,SSE,163,1.8,5.6,100,-99.99,,,-99.99,1.0,HOBO +U30 +Weather +,2013-01-30 10:30:00,
2013-01-30 05:40:00,41.4,41.4,29.93,SSE,160,1.8,4.5,100,-99.99,,,-99.99,1.0,HOBO +U30 +Weather +,2013-01-30 10:40:00,
2013-01-30 05:50:00,41.8,41.8,29.93,SSE,157,2.2,6.3,100,-99.99,,,-99.99,1.0,HOBO +U30 +Weather +,2013-01-30 10:50:00,
2013-01-30 06:00:00,42.6,42.6,29.92,SSE,164,3.4,8.5,100,-99.99,,,-99.99,1.0,HOBO +U30 +Weather +,2013-01-30 11:00:00,
2013-01-30 06:10:00,43.0,42.9,29.92,SSE,156,2.2,5.6,99,-99.99,,,-99.99,1.0,HOBO +U30 +Weather +,2013-01-30 11:10:00,
2013-01-30 06:20:00,43.7,43.6,29.92,South,171,2.9,8.5,99,-99.99,,,-99.99,1.0,HOBO +U30 +Weather +,2013-01-30 11:20:00,
2013-01-30 06:30:00,44.1,44.0,29.92,South,171,4.0,6.7,99,-99.99,,,-99.99,1.0,HOBO +U30 +Weather +,2013-01-30 11:30:00,
2013-01-30 06:40:00,44.9,44.7,29.91,South,173,5.1,11.9,99,-99.99,,,-99.99,1.0,HOBO +U30 +Weather +,2013-01-30 11:40:00,
2013-01-30 06:50:00,45.2,44.9,29.91,South,171,7.4,15.2,98,-99.99,,,-99.99,1.0,HOBO +U30 +Weather +,2013-01-30 11:50:00,
2013-01-30 07:00:00,45.3,44.9,29.90,South,174,7.4,13.4,98,-99.99,,,-99.99,1.0,HOBO +U30 +Weather +,2013-01-30 12:00:00,
2013-01-30 07:10:00,45.2,44.8,29.90,South,171,6.3,11.9,98,-99.99,,,-99.99,2.0,HOBO +U30 +Weather +,2013-01-30 12:10:00,
2013-01-30 07:20:00,45.2,44.8,29.89,South,177,4.5,9.6,98,-99.99,,,-99.99,7.0,HOBO +U30 +Weather +,2013-01-30 12:20:00,
2013-01-30 07:30:00,45.5,45.1,29.88,South,175,4.0,9.6,98,-99.99,,,-99.99,11.0,HOBO +U30 +Weather +,2013-01-30 12:30:00,
2013-01-30 07:40:00,46.3,45.9,29.88,South,174,4.0,9.6,98,-99.99,,,-99.99,12.0,HOBO +U30 +Weather +,2013-01-30 12:40:00,
2013-01-30 07:50:00,47.4,47.0,29.87,South,170,4.5,12.3,98,-99.99,,,-99.99,8.0,HOBO +U30 +Weather +,2013-01-30 12:50:00,
2013-01-30 08:00:00,47.8,47.4,29.88,South,181,6.3,11.2,98,-99.99,,,-99.99,14.0,HOBO +U30 +Weather +,2013-01-30 13:00:00,
2013-01-30 08:10:00,46.1,45.6,29.88,South,188,6.3,13.4,98,-99.99,,,-99.99,31.0,HOBO +U30 +Weather +,2013-01-30 13:10:00,
2013-01-30 08:20:00,46.1,45.7,29.87,South,177,6.3,13.0,98,-99.99,,,-99.99,24.0,HOBO +U30 +Weather +,2013-01-30 13:20:00,
2013-01-30 08:30:00,45.9,45.6,29.86,South,175,5.1,10.7,98,-99.99,,,-99.99,37.0,HOBO +U30 +Weather +,2013-01-30 13:30:00,
2013-01-30 08:40:00,46.1,45.8,29.86,South,178,6.7,10.7,99,-99.99,,,-99.99,39.0,HOBO +U30 +Weather +,2013-01-30 13:40:00,
2013-01-30 08:50:00,45.8,45.5,29.85,South,178,7.4,12.3,99,-99.99,,,-99.99,59.0,HOBO +U30 +Weather +,2013-01-30 13:50:00,
2013-01-30 09:00:00,46.3,46.1,29.85,South,175,7.8,13.0,99,-99.99,,,-99.99,79.0,HOBO +U30 +Weather +,2013-01-30 14:00:00,
2013-01-30 09:10:00,47.4,47.2,29.84,South,178,6.7,13.4,99,-99.99,,,-99.99,73.0,HOBO +U30 +Weather +,2013-01-30 14:10:00,
2013-01-30 09:20:00,48.3,48.1,29.83,South,177,8.5,15.9,99,-99.99,,,-99.99,61.0,HOBO +U30 +Weather +,2013-01-30 14:20:00,
2013-01-30 09:30:00,48.9,48.7,29.83,South,178,7.8,14.1,99,-99.99,,,-99.99,81.0,HOBO +U30 +Weather +,2013-01-30 14:30:00,
2013-01-30 09:40:00,49.6,49.3,29.83,South,184,8.9,17.4,98,-99.99,,,-99.99,92.0,HOBO +U30 +Weather +,2013-01-30 14:40:00,
2013-01-30 09:50:00,49.6,49.2,29.82,South,183,9.6,18.1,98,-99.99,,,-99.99,43.0,HOBO +U30 +Weather +,2013-01-30 14:50:00,
2013-01-30 10:00:00,49.7,49.4,29.82,South,181,8.5,18.1,98,-99.99,,,-99.99,64.0,HOBO +U30 +Weather +,2013-01-30 15:00:00,
2013-01-30 10:10:00,50.3,49.9,29.81,South,180,8.9,16.3,98,-99.99,,,-99.99,83.0,HOBO +U30 +Weather +,2013-01-30 15:10:00,
2013-01-30 10:20:00,50.2,49.7,29.81,South,183,11.2,20.8,98,-99.99,,,-99.99,82.0,HOBO +U30 +Weather +,2013-01-30 15:20:00,
2013-01-30 10:30:00,50.0,49.5,29.81,South,184,8.9,17.4,98,-99.99,,,-99.99,86.0,HOBO +U30 +Weather +,2013-01-30 15:30:00,
2013-01-30 10:40:00,49.9,49.5,29.80,South,184,8.5,14.5,98,-99.99,,,-99.99,48.0,HOBO +U30 +Weather +,2013-01-30 15:40:00,
2013-01-30 10:50:00,49.7,49.5,29.79,South,177,10.1,19.7,98,-99.99,,,-99.99,56.0,HOBO +U30 +Weather +,2013-01-30 15:50:00,
2013-01-30 11:00:00,49.9,49.7,29.78,South,180,11.2,18.6,99,-99.99,,,-99.99,74.0,HOBO +U30 +Weather +,2013-01-30 16:00:00,
2013-01-30 11:10:00,50.2,50.1,29.77,South,173,12.3,21.5,99,-99.99,,,-99.99,91.0,HOBO +U30 +Weather +,2013-01-30 16:10:00,
2013-01-30 11:20:00,51.0,51.0,29.75,South,177,13.0,22.6,99,-99.99,,,-99.99,123.0,HOBO +U30 +Weather +,2013-01-30 16:20:00,
2013-01-30 11:30:00,51.8,51.7,29.73,South,178,14.1,25.9,99,-99.99,,,-99.99,114.0,HOBO +U30 +Weather +,2013-01-30 16:30:00,
2013-01-30 11:40:00,51.7,51.5,29.72,South,175,14.5,25.9,99,-99.99,,,-99.99,176.0,HOBO +U30 +Weather +,2013-01-30 16:40:00,
2013-01-30 11:50:00,52.3,52.1,29.71,South,177,14.1,24.8,99,-99.99,,,-99.99,253.0,HOBO +U30 +Weather +,2013-01-30 16:50:00,
2013-01-30 12:00:00,52.2,51.7,29.70,South,177,14.5,23.7,98,-99.99,,,-99.99,183.0,HOBO +U30 +Weather +,2013-01-30 17:00:00,
2013-01-30 12:10:00,51.7,51.2,29.70,South,178,15.2,25.9,98,-99.99,,,-99.99,203.0,HOBO +U30 +Weather +,2013-01-30 17:10:00,
2013-01-30 12:20:00,51.9,51.4,29.68,South,177,15.9,26.4,97,-99.99,,,-99.99,187.0,HOBO +U30 +Weather +,2013-01-30 17:20:00,
2013-01-30 12:30:00,51.2,50.7,29.67,South,178,16.3,28.2,97,-99.99,,,-99.99,181.0,HOBO +U30 +Weather +,2013-01-30 17:30:00,
2013-01-30 12:40:00,52.2,51.6,29.67,South,177,14.5,25.9,97,-99.99,,,-99.99,332.0,HOBO +U30 +Weather +,2013-01-30 17:40:00,
2013-01-30 12:50:00,52.3,51.2,29.66,South,180,15.2,24.8,95,-99.99,,,-99.99,278.0,HOBO +U30 +Weather +,2013-01-30 17:50:00,
2013-01-30 13:00:00,52.3,51.3,29.67,South,175,15.9,29.3,96,-99.99,,,-99.99,251.0,HOBO +U30 +Weather +,2013-01-30 18:00:00,
2013-01-30 13:10:00,52.8,51.6,29.66,South,183,13.4,24.2,95,-99.99,,,-99.99,148.0,HOBO +U30 +Weather +,2013-01-30 18:10:00,
2013-01-30 13:20:00,52.7,51.6,29.65,South,181,13.4,21.5,96,-99.99,,,-99.99,142.0,HOBO +U30 +Weather +,2013-01-30 18:20:00,
2013-01-30 13:30:00,53.0,52.1,29.65,South,185,13.0,30.9,96,-99.99,,,-99.99,84.0,HOBO +U30 +Weather +,2013-01-30 18:30:00,
2013-01-30 13:40:00,52.6,51.8,29.66,South,187,11.2,20.4,96,-99.99,,,-99.99,58.0,HOBO +U30 +Weather +,2013-01-30 18:40:00,
2013-01-30 13:50:00,52.9,52.3,29.65,South,185,13.4,23.0,97,-99.99,,,-99.99,68.0,HOBO +U30 +Weather +,2013-01-30 18:50:00,
2013-01-30 14:00:00,52.9,52.3,29.65,South,187,12.3,22.6,97,-99.99,,,-99.99,66.0,HOBO +U30 +Weather +,2013-01-30 19:00:00,
2013-01-30 14:10:00,52.7,52.2,29.65,South,187,12.3,23.0,98,-99.99,,,-99.99,93.0,HOBO +U30 +Weather +,2013-01-30 19:10:00,
2013-01-30 14:20:00,53.7,53.2,29.65,South,187,13.0,23.0,98,-99.99,,,-99.99,73.0,HOBO +U30 +Weather +,2013-01-30 19:20:00,
2013-01-30 14:30:00,54.0,53.5,29.64,South,187,13.4,27.5,98,-99.99,,,-99.99,71.0,HOBO +U30 +Weather +,2013-01-30 19:30:00,
2013-01-30 14:40:00,53.7,53.3,29.64,South,190,13.4,22.6,98,-99.99,,,-99.99,62.0,HOBO +U30 +Weather +,2013-01-30 19:40:00,
2013-01-30 14:50:00,53.7,53.3,29.65,South,188,13.4,24.2,98,-99.99,,,-99.99,21.0,HOBO +U30 +Weather +,2013-01-30 19:50:00,
2013-01-30 15:00:00,53.7,53.5,29.65,South,188,13.0,24.2,99,-99.99,,,-99.99,21.0,HOBO +U30 +Weather +,2013-01-30 20:00:00,
2013-01-30 15:10:00,53.4,53.3,29.64,South,184,13.0,20.4,99,-99.99,,,-99.99,19.0,HOBO +U30 +Weather +,2013-01-30 20:10:00,
2013-01-30 15:20:00,54.1,54.1,29.63,South,187,14.1,25.3,100,-99.99,,,-99.99,27.0,HOBO +U30 +Weather +,2013-01-30 20:20:00,
2013-01-30 15:30:00,53.9,53.9,29.63,South,184,12.3,23.0,100,-99.99,,,-99.99,16.0,HOBO +U30 +Weather +,2013-01-30 20:30:00,
2013-01-30 15:40:00,53.4,53.4,29.62,South,185,11.9,20.8,100,-99.99,,,-99.99,11.0,HOBO +U30 +Weather +,2013-01-30 20:40:00,
2013-01-30 15:50:00,53.1,53.1,29.62,South,184,11.2,19.7,100,-99.99,,,-99.99,13.0,HOBO +U30 +Weather +,2013-01-30 20:50:00,
2013-01-30 16:00:00,53.0,53.0,29.62,South,188,11.2,20.4,100,-99.99,,,-99.99,14.0,HOBO +U30 +Weather +,2013-01-30 21:00:00,
2013-01-30 16:10:00,52.7,52.7,29.62,South,188,11.2,21.9,100,-99.99,,,-99.99,9.0,HOBO +U30 +Weather +,2013-01-30 21:10:00,
2013-01-30 16:20:00,52.8,52.8,29.62,South,188,10.7,19.2,100,-99.99,,,-99.99,7.0,HOBO +U30 +Weather +,2013-01-30 21:20:00,
2013-01-30 16:30:00,53.0,53.0,29.62,South,191,10.1,21.9,100,-99.99,,,-99.99,3.0,HOBO +U30 +Weather +,2013-01-30 21:30:00,
2013-01-30 16:40:00,53.1,53.1,29.62,South,188,11.2,22.6,100,-99.99,,,-99.99,2.0,HOBO +U30 +Weather +,2013-01-30 21:40:00,
2013-01-30 16:50:00,52.7,52.7,29.61,South,188,10.7,18.1,100,-99.99,,,-99.99,1.0,HOBO +U30 +Weather +,2013-01-30 21:50:00,
2013-01-30 17:00:00,53.3,53.3,29.61,South,187,11.2,21.5,100,-99.99,,,-99.99,1.0,HOBO +U30 +Weather +,2013-01-30 22:00:00,
2013-01-30 17:10:00,53.8,53.8,29.61,South,185,13.0,23.0,100,-99.99,,,-99.99,1.0,HOBO +U30 +Weather +,2013-01-30 22:10:00,
2013-01-30 17:20:00,53.7,53.7,29.60,South,187,13.0,22.6,100,-99.99,,,-99.99,1.0,HOBO +U30 +Weather +,2013-01-30 22:20:00,
2013-01-30 17:30:00,53.3,53.3,29.61,South,190,12.3,23.7,100,-99.99,,,-99.99,1.0,HOBO +U30 +Weather +,2013-01-30 22:30:00,
2013-01-30 17:40:00,53.3,53.3,29.60,South,188,11.9,21.5,100,-99.99,,,-99.99,1.0,HOBO +U30 +Weather +,2013-01-30 22:40:00,
2013-01-30 17:50:00,53.5,53.5,29.60,South,190,11.9,19.7,100,-99.99,,,-99.99,1.0,HOBO +U30 +Weather +,2013-01-30 22:50:00,
2013-01-30 18:00:00,53.6,53.6,29.59,South,185,13.4,24.8,100,-99.99,,,-99.99,1.0,HOBO +U30 +Weather +,2013-01-30 23:00:00,
2013-01-30 18:10:00,54.0,54.0,29.59,South,185,13.4,25.3,100,-99.99,,,-99.99,1.0,HOBO +U30 +Weather +,2013-01-30 23:10:00,
2013-01-30 18:20:00,54.2,54.3,29.59,South,185,14.1,24.8,100,-99.99,,,-99.99,1.0,HOBO +U30 +Weather +,2013-01-30 23:20:00,
2013-01-30 18:30:00,53.7,53.7,29.59,South,185,11.9,22.6,100,-99.99,,,-99.99,1.0,HOBO +U30 +Weather +,2013-01-30 23:30:00,
2013-01-30 18:40:00,53.1,53.1,29.58,South,184,12.3,22.6,100,-99.99,,,-99.99,1.0,HOBO +U30 +Weather +,2013-01-30 23:40:00,
2013-01-30 18:50:00,53.0,53.0,29.57,South,184,12.3,21.9,100,-99.99,,,-99.99,1.0,HOBO +U30 +Weather +,2013-01-30 23:50:00,
2013-01-30 19:00:00,53.1,53.1,29.57,South,183,12.3,23.7,100,-99.99,,,-99.99,1.0,HOBO +U30 +Weather +,2013-01-31 00:00:00,
2013-01-30 19:10:00,53.4,53.4,29.57,South,184,11.2,20.4,100,-99.99,,,-99.99,1.0,HOBO +U30 +Weather +,2013-01-31 00:10:00,
2013-01-30 19:20:00,53.9,54.0,29.56,South,187,13.0,24.2,100,-99.99,,,-99.99,1.0,HOBO +U30 +Weather +,2013-01-31 00:20:00,
2013-01-30 19:30:00,54.2,54.2,29.56,South,187,13.0,23.0,100,-99.99,,,-99.99,1.0,HOBO +U30 +Weather +,2013-01-31 00:30:00,
2013-01-30 19:40:00,54.8,54.8,29.56,South,187,12.3,23.0,100,-99.99,,,-99.99,1.0,HOBO +U30 +Weather +,2013-01-31 00:40:00,
2013-01-30 19:50:00,54.8,54.8,29.55,South,190,12.3,25.9,100,-99.99,,,-99.99,1.0,HOBO +U30 +Weather +,2013-01-31 00:50:00,
2013-01-30 20:00:00,53.9,53.9,29.55,South,184,11.9,19.2,100,-99.99,,,-99.99,1.0,HOBO +U30 +Weather +,2013-01-31 01:00:00,
2013-01-30 20:10:00,53.9,53.9,29.54,South,187,11.9,23.0,100,-99.99,,,-99.99,1.0,HOBO +U30 +Weather +,2013-01-31 01:10:00,
2013-01-30 20:20:00,53.7,53.7,29.54,South,181,13.0,24.2,100,-99.99,,,-99.99,1.0,HOBO +U30 +Weather +,2013-01-31 01:20:00,
2013-01-30 20:30:00,54.4,54.4,29.53,South,184,12.3,23.7,100,-99.99,,,-99.99,1.0,HOBO +U30 +Weather +,2013-01-31 01:30:00,
2013-01-30 20:40:00,54.6,54.6,29.53,South,181,11.9,20.4,99,-99.99,,,-99.99,1.0,HOBO +U30 +Weather +,2013-01-31 01:40:00,
2013-01-30 20:50:00,54.6,54.6,29.52,South,181,11.9,23.7,99,-99.99,,,-99.99,1.0,HOBO +U30 +Weather +,2013-01-31 01:50:00,
2013-01-30 21:00:00,53.8,53.8,29.53,South,185,11.2,21.5,99,-99.99,,,-99.99,1.0,HOBO +U30 +Weather +,2013-01-31 02:00:00,
2013-01-30 21:10:00,54.0,54.0,29.53,South,188,10.1,21.5,99,-99.99,,,-99.99,1.0,HOBO +U30 +Weather +,2013-01-31 02:10:00,
2013-01-30 21:20:00,55.6,55.5,29.53,South,185,11.9,23.0,99,-99.99,,,-99.99,1.0,HOBO +U30 +Weather +,2013-01-31 02:20:00,
2013-01-30 21:30:00,55.7,55.5,29.52,South,190,11.9,22.6,99,-99.99,,,-99.99,1.0,HOBO +U30 +Weather +,2013-01-31 02:30:00,
2013-01-30 21:40:00,55.6,55.3,29.52,South,188,12.3,24.2,98,-99.99,,,-99.99,1.0,HOBO +U30 +Weather +,2013-01-31 02:40:00,
2013-01-30 21:50:00,54.9,54.5,29.51,South,188,13.0,22.6,98,-99.99,,,-99.99,1.0,HOBO +U30 +Weather +,2013-01-31 02:50:00,
2013-01-30 22:00:00,55.0,54.7,29.51,South,188,12.3,19.7,98,-99.99,,,-99.99,1.0,HOBO +U30 +Weather +,2013-01-31 03:00:00,
2013-01-30 22:10:00,54.7,54.3,29.50,South,184,12.3,21.5,98,-99.99,,,-99.99,1.0,HOBO +U30 +Weather +,2013-01-31 03:10:00,
2013-01-30 22:20:00,54.5,54.1,29.50,South,184,11.2,19.2,98,-99.99,,,-99.99,1.0,HOBO +U30 +Weather +,2013-01-31 03:20:00,
2013-01-30 22:30:00,54.0,53.5,29.50,South,183,10.1,17.0,98,-99.99,,,-99.99,1.0,HOBO +U30 +Weather +,2013-01-31 03:30:00,
2013-01-30 22:40:00,53.3,52.8,29.49,South,180,10.7,18.1,98,-99.99,,,-99.99,1.0,HOBO +U30 +Weather +,2013-01-31 03:40:00,
2013-01-30 22:50:00,53.1,52.7,29.48,South,180,10.1,18.6,98,-99.99,,,-99.99,1.0,HOBO +U30 +Weather +,2013-01-31 03:50:00,
2013-01-30 23:00:00,53.2,52.8,29.48,South,178,11.2,21.5,98,-99.99,,,-99.99,1.0,HOBO +U30 +Weather +,2013-01-31 04:00:00,
2013-01-30 23:10:00,53.3,52.9,29.47,South,175,11.9,20.4,98,-99.99,,,-99.99,1.0,HOBO +U30 +Weather +,2013-01-31 04:10:00,
2013-01-30 23:20:00,53.9,53.5,29.46,South,177,13.4,22.6,98,-99.99,,,-99.99,1.0,HOBO +U30 +Weather +,2013-01-31 04:20:00,
2013-01-30 23:30:00,53.9,53.4,29.45,South,177,13.4,25.3,98,-99.99,,,-99.99,1.0,HOBO +U30 +Weather +,2013-01-31 04:30:00,
2013-01-30 23:40:00,53.7,53.0,29.46,South,178,13.4,25.3,97,-99.99,,,-99.99,1.0,HOBO +U30 +Weather +,2013-01-31 04:40:00,
2013-01-30 23:50:00,53.7,53.1,29.44,South,177,12.3,21.9,97,-99.99,,,-99.99,1.0,HOBO +U30 +Weather +,2013-01-31 04:50:00,